This demonstration page uses our WeatherBlox Daily Observations layout. Learn more.

Left ArrowRight Arrow

36.17497, -115.13722

Hourly Observations for July 24, 2021

Temp ( °F °C ) Dew Point ( °F °C ) Humidity (%) Winds ( mph kmh ) Pressure ( in mb ) Visibility ( mi km ) Precip ( " mm )
12:53 am 00:53 Clear 91 32.8 60 15.6 35 35 W 3 6 29.90 1013 10 16 0.00 0.00
1:53 am 01:53 Clear 89 31.7 61 16.1 39 39 ESE 6 9 29.89 1012 10 16 N/A
2:53 am 02:53 Clear 89 31.7 64 17.8 43 43 E 8 13 29.88 1012 10 16 N/A
3:53 am 03:53 Clear 89 31.7 63 17.2 42 42 E 10 17 29.89 1012 10 16 N/A
4:53 am 04:53 Clear 88 31.1 64 17.8 45 45 ENE 7 11 29.89 1012 10 16 N/A
5:53 am 05:53 Sunny 87 30.6 65 18.3 48 48 NE 7 11 29.91 1013 10 16 N/A
6:53 am 06:53 Mostly Sunny 87 30.6 66 18.9 50 50 NNE 6 9 29.93 1013 10 16 N/A
7:53 am 07:53 Sunny 87 30.6 63 17.2 45 45 SE 6 9 29.95 1014 10 16 N/A
8:53 am 08:53 Sunny 88 31.1 63 17.2 43 43 SSE 3 6 29.95 1014 10 16 N/A
9:53 am 09:53 Sunny 92 33.3 63 17.2 38 38 N N/A 29.94 1014 10 16 N/A
10:53 am 10:53 Sunny 92 33.3 62 16.7 37 37 SE 7 11 29.94 1014 10 16 N/A
11:53 am 11:53 Sunny 93 33.9 61 16.1 34 34 SE 6 9 29.93 1014 10 16 N/A
12:53 pm 12:53 Sunny 95 35 62 16.7 34 34 ESE 9 15 29.91 1013 10 16 N/A
1:53 pm 13:53 Sunny 98 36.7 61 16.1 29 29 SE 6 9 29.88 1012 10 16 N/A
2:53 pm 14:53 Sunny 100 37.8 60 15.6 27 27 VRB 3 6 29.86 1011 10 16 N/A
3:53 pm 15:53 Sunny 101 38.3 59 15 25 25 SSE 8 13 29.83 1010 10 16 N/A
4:53 pm 16:53 Sunny 101 38.3 59 15 25 25 E 7 11 29.81 1010 10 16 N/A
5:53 pm 17:53 Mostly Sunny 101 38.3 58 14.4 24 24 VRB 5 7 29.80 1009 10 16 N/A
6:53 pm 18:53 Sunny 99 37.2 61 16.1 29 29 SE 18 30 29.82 1010 10 16 N/A
7:53 pm 19:53 Clear 98 36.7 60 15.6 28 28 SE 12 19 29.83 1010 10 16 N/A
8:53 pm 20:53 Clear 96 35.6 61 16.1 31 31 SSE 5 7 29.85 1011 10 16 N/A
9:53 pm 21:53 Clear 91 32.8 63 17.2 39 39 NW 12 19 29.86 1011 10 16 N/A
10:53 pm 22:53 Clear 91 32.8 63 17.2 39 39 NNW 9 15 29.86 1011 10 16 N/A
11:53 pm 23:53 Clear 92 33.3 62 16.7 37 37 E 10 17 29.87 1012 10 16 N/A

Powered by AerisWeather